Change the Weather History Date:

Tuesday, July 8, 2014

  Actual Average Record
Temperature  
Mean Temperature 83 °F 77 °F  
Max Temperature 93 °F 85 °F 99 °F (1993)
Min Temperature 72 °F 69 °F 60 °F (1984)
Degree Days  
Heating Degree Days 0 0  
Month to date heating degree days 0 0  
Since 1 June heating degree days 0 16  
Since 1 July heating degree days 0 0  
Cooling Degree Days 18 12  
Month to date cooling degree days 111 93  
Year to date cooling degree days 393 390  
Since 1 June cooling degree days 343 324  
Growing Degree Days 32 (Base 50)    
Moisture  
Dew Point 66 °F    
Average Humidity 58    
Maximum Humidity 79    
Minimum Humidity 36    
Precipitation  
Precipitation 0.18 in 0.13 in 1.24 in (1987)
Month to date precipitation 1.70 1.01  
Year to date precipitation 29.27 22.64  
Snow  
Snow 0.00 in 0.00 in - ()
Month to date snowfall 0.0 0.0  
Since 1 July snowfall 0.0 0.0  
Snow Depth 0.00 in    
Sea Level Pressure  
Sea Level Pressure 29.77 in    
Wind  
Wind Speed 11 mph (SSW)    
Max Wind Speed 18 mph    
Max Gust Speed 23 mph    
Visibility 10 miles    
Events Rain , Thunderstorm    
T = Trace of Precipitation, MM = Missing Value Source: NWS Daily Summary

Daily Weather History Graph

Daily Weather History Graph

Search for Another Location

Airport or City:

Trip Planner

Search our weather history database for the weather conditions in past years. The results will help you decide how hot, cold, wet, or windy it might be!

Date:

Astronomy

Jul. 08, 2014 Rise Set
Actual Time 5:31 AM EDT 8:29 PM EDT
Civil Twilight 4:59 AM EDT 9:01 PM EDT
Nautical Twilight 4:17 AM EDT 9:43 PM EDT
Astronomical Twilight 3:28 AM EDT 10:31 PM EDT
Moon 4:32 PM EDT (7/8) 2:03 AM EDT (7/8)
Length of Visible Light 16h 02m
Length of Day
14h 57m
Waxing Gibbous, 81% of the Moon is Illuminated
Jul 8
Waxing Gibbous
Jul 12
Full
Jul 18
Last Quarter
Jul 26
New
Aug 3
First Quarter

Hourly Weather History & Observations

Time (EDT) Temp. Heat Index Dew Point Humidity Pressure Visibility Wind Dir Wind Speed Gust Speed Precip Events Conditions
12:30 AM 84.2 °F 85.6 °F 64.4 °F 51% 29.83 in 10.0 mi NW 15.0 mph 21.9 mph N/A   Overcast
12:49 AM 80.6 °F 81.8 °F 62.6 °F 54% 29.83 in 10.0 mi NW 20.7 mph 27.6 mph N/A Thunderstorm Thunderstorm
12:51 AM 80.1 °F 81.2 °F 62.1 °F 54% 29.83 in 10.0 mi NW 24.2 mph 31.1 mph N/A Thunderstorm Thunderstorm
1:51 AM 72.0 °F - 66.9 °F 84% 29.82 in 7.0 mi WNW 5.8 mph - 0.16 in Rain , Thunderstorm Light Thunderstorms and Rain
2:15 AM 73.4 °F - 66.2 °F 78% 29.80 in 10.0 mi South 4.6 mph - 0.02 in Rain Light Rain
2:51 AM 75.9 °F - 68.0 °F 76% 29.80 in 10.0 mi SSW 5.8 mph - 0.02 in   Overcast
3:51 AM 75.0 °F - 68.0 °F 79% 29.79 in 10.0 mi SSW 5.8 mph - N/A   Mostly Cloudy
4:51 AM 75.0 °F - 66.0 °F 73% 29.78 in 10.0 mi South 9.2 mph - N/A   Mostly Cloudy
5:51 AM 75.0 °F - 66.0 °F 73% 29.77 in 10.0 mi South 6.9 mph - N/A   Scattered Clouds
6:51 AM 75.9 °F - 66.9 °F 74% 29.79 in 10.0 mi South 8.1 mph - N/A   Mostly Cloudy
7:51 AM 79.0 °F - 66.9 °F 66% 29.82 in 10.0 mi SW 9.2 mph - N/A   Mostly Cloudy
8:51 AM 81.0 °F 83.3 °F 66.9 °F 62% 29.82 in 10.0 mi SW 11.5 mph - N/A   Mostly Cloudy
9:51 AM 84.0 °F 86.3 °F 66.0 °F 55% 29.82 in 10.0 mi WSW 9.2 mph - N/A   Mostly Cloudy
10:51 AM 86.0 °F 88.2 °F 66.0 °F 51% 29.81 in 10.0 mi SSW 12.7 mph 18.4 mph N/A   Mostly Cloudy
11:51 AM 90.0 °F 91.3 °F 64.0 °F 42% 29.79 in 10.0 mi SW 12.7 mph 20.7 mph N/A   Mostly Cloudy
12:51 PM 91.0 °F 92.6 °F 64.0 °F 41% 29.78 in 10.0 mi SSW 11.5 mph - N/A   Mostly Cloudy
1:51 PM 93.0 °F 94.2 °F 63.0 °F 37% 29.76 in 10.0 mi SW 15.0 mph 23.0 mph N/A   Mostly Cloudy
2:51 PM 89.1 °F 92.9 °F 68.0 °F 50% 29.75 in 10.0 mi SSE 18.4 mph - N/A   Mostly Cloudy
3:51 PM 89.1 °F 92.9 °F 68.0 °F 50% 29.73 in 10.0 mi SSE 13.8 mph - N/A   Mostly Cloudy
4:51 PM 90.0 °F 92.8 °F 66.9 °F 46% 29.70 in 10.0 mi SSE 12.7 mph 18.4 mph N/A   Mostly Cloudy
5:51 PM 88.0 °F 90.7 °F 66.9 °F 49% 29.69 in 10.0 mi South 12.7 mph - N/A   Mostly Cloudy
6:51 PM 84.9 °F 88.2 °F 68.0 °F 57% 29.68 in 10.0 mi South 15.0 mph 20.7 mph N/A   Scattered Clouds
7:51 PM 82.9 °F 85.8 °F 68.0 °F 60% 29.67 in 10.0 mi South 11.5 mph 17.3 mph N/A   Mostly Cloudy
8:51 PM 82.9 °F 86.5 °F 69.1 °F 63% 29.69 in 10.0 mi South 12.7 mph - N/A   Mostly Cloudy
9:51 PM 78.8 °F - 68.0 °F 69% 29.69 in 10.0 mi SSE 9.2 mph - N/A   Mostly Cloudy
10:24 PM 78.8 °F - 64.4 °F 61% 29.71 in 10.0 mi SW 29.9 mph 48.3 mph 0.00 in Rain Light Rain
10:51 PM 77.0 °F - 66.0 °F 69% 29.75 in 10.0 mi WSW 25.3 mph 34.5 mph 0.00 in Rain Light Rain
11:51 PM 75.0 °F - 64.9 °F 71% 29.77 in 10.0 mi SW 12.7 mph - 0.00 in   Mostly Cloudy